[[{"header":{"parameterUnit":"m.s-1","parameterCategory":1,"la1":30.2991,"la2":30.254,"lo1":-89.0895,"lo2":-89.0444,"dy":0.0017,"dx":0.0017,"nx":28,"ny":28,"refTime":"2024-08-19T09:00:00:Z","depth":0,"parameterNumber":2,"parameterNumberName":"U-component_of_WINDS"},"data":[0,0,0,0,0,0,0,0,0,0,0,0,0,0,0,0,0,0,0,0,0,0,0,0,0,0,0,0,0,0,0,0,0,0,0,0,0,0,0,0,0,0,0,0,0,0,0,0,0,0,0,0,0,0,0,0,0,0,2.3319,2.332,0,2.3369,2.3369,2.337,2.3337,2.3335,2.3334,2.3332,2.3384,2.3386,2.3389,0,0,0,0,0,0,0,0,0,0,0,0,0,2.3199,2.3201,2.3319,2.332,2.332,2.3368,2.3369,2.337,2.3337,2.3335,2.3333,2.3332,2.3383,2.3386,2.3389,0,0,0,0,0,0,0,0,0,0,0,0,0,2.325,2.3202,2.3319,2.331,2.3309,2.3368,2.3369,2.337,2.3337,2.3335,2.3333,2.3331,2.3382,2.3386,2.339,2.3461,0,0,2.3403,2.3404,0,0,0,0,0,0,0,0,2.3247,2.3254,2.3311,2.3311,2.331,2.3344,2.3345,2.34,2.3338,2.3327,2.3332,2.333,2.3372,2.3377,2.3391,2.3463,2.3465,2.3403,2.3405,2.3407,2.3408,0,0,0,0,0,0,0,2.3243,2.3252,2.3339,2.3311,2.3311,2.3304,2.3309,2.3356,2.3362,2.3328,2.3325,2.3332,2.3372,2.3388,2.3392,2.3466,2.3403,2.3407,2.3409,2.3411,2.36,2.3603,0,0,0,0,0,0,2.324,2.3249,2.3337,2.334,2.3272,2.3308,2.3313,2.3336,2.3361,2.3363,2.3334,2.333,2.3382,2.3388,2.3394,2.348,2.3407,2.3411,2.3414,2.3598,2.3601,2.3604,0,0,0,0,0,0,2.3238,2.3249,2.3335,2.3294,2.3305,2.3312,2.3338,2.3338,2.3353,2.3366,2.3367,2.3348,2.338,2.3388,2.3445,2.3481,2.3413,2.3417,2.3595,2.3599,2.3602,2.3651,0,0,0,0,0,0,2.3235,2.3248,2.3274,2.3295,2.3307,2.3384,2.334,2.334,2.336,2.3356,2.338,2.3381,2.3379,2.3439,2.3449,2.3486,2.342,2.3592,2.3597,2.3601,2.3646,2.3656,2.3665,0,0,0,0,0,2.323,2.3286,2.3276,2.3287,2.334,2.3387,2.3393,2.3389,2.3363,2.3391,2.3399,2.3381,2.3476,2.3445,2.3456,2.3494,2.3589,2.3595,2.3601,2.3642,2.3654,2.3664,0,0,0,0,0,0,2.3269,2.3288,2.3277,2.3341,2.3362,2.3381,2.3415,2.3402,2.3431,2.3426,2.342,2.3426,2.3485,2.3495,2.3461,2.3565,2.3529,2.3537,2.3556,2.3568,2.3577,2.3573,2.3423,0,0,0,0,0,2.3285,2.3321,2.3336,2.3391,2.3402,2.3407,2.3427,2.3422,2.3444,2.3453,2.3465,2.3488,2.3523,2.3546,2.3579,2.3648,2.3653,2.368,2.3689,2.3697,2.3704,2.3743,2.3755,2.3623,2.3623,2.3622,0,0,2.3318,2.3333,2.3356,2.3399,2.3415,2.3453,2.3414,2.3456,2.3484,2.3459,2.3513,2.3524,2.3548,2.3612,2.3641,2.3623,2.3742,2.3704,2.371,2.3713,2.375,2.3763,2.3774,2.3626,2.3626,2.3625,0,0,2.3398,2.3413,2.346,2.3478,2.3502,2.3506,2.3517,2.3538,2.3544,2.3599,2.3581,2.3615,2.3675,2.3694,2.3712,2.3801,2.3786,2.3812,2.386,2.3898,2.3908,2.3918,2.3951,2.3962,2.3819,2.3819,2.382,0,2.3436,2.3492,2.3487,2.353,2.355,2.3529,2.3578,2.3595,2.363,2.3645,2.3624,2.37,2.3715,2.3784,2.3806,2.3821,2.3835,2.3809,2.3907,2.3917,2.3925,2.3956,2.3969,2.3822,2.3822,2.3822,2.3822,0,2.3538,2.3577,2.3613,2.3647,2.3671,2.3717,2.372,2.3745,2.3739,2.3745,2.3801,2.3819,2.3856,2.3872,2.3866,2.394,2.3928,2.3908,2.3871,2.3941,2.397,2.3982,2.3827,2.3826,2.3825,2.3824,0,0,2.3642,2.3674,2.3687,2.3703,2.3731,2.3761,2.3807,2.3843,2.3865,2.3891,2.3929,2.3982,2.3963,2.3983,2.398,2.4013,2.4084,2.3988,2.3989,2.4006,2.4169,2.4185,2.4199,2.4075,2.4077,2.4079,2.4167,0,2.3724,2.3803,2.3801,2.3875,2.3912,2.3895,2.3935,2.3956,2.3963,2.3997,2.4005,2.4042,2.4014,2.4027,2.4059,2.4069,2.4117,2.4062,2.4112,2.4114,2.4106,2.4214,2.423,2.4313,2.4179,2.4181,2.4182,0,2.383,2.3859,2.3937,2.396,2.3976,2.4012,2.4046,2.4077,2.4102,2.4105,2.4128,2.412,2.4168,2.4129,2.4196,2.4159,2.4179,2.4187,2.419,2.4195,2.4152,2.4222,2.4339,2.4351,2.42,2.4198,2.4197,0,2.3899,2.3958,2.4013,2.4027,2.4055,2.4081,2.4094,2.4116,2.4139,2.4169,2.4184,2.4219,2.4238,2.4266,2.4268,2.424,2.4336,2.4297,2.434,2.434,2.4361,2.4359,2.4483,2.4374,2.4373,2.4373,2.4373,0,2.3991,2.4039,2.4044,2.4078,2.4132,2.413,2.4184,2.4195,2.4216,2.4252,2.4239,2.4273,2.4273,2.4309,2.4311,2.4366,2.4375,2.4379,2.4379,2.4381,2.438,2.4394,2.4388,2.4376,2.4376,2.4375,2.4374,0,2.4077,2.4082,2.414,2.4163,2.417,2.4209,2.4229,2.4261,2.4268,2.4314,2.4325,2.4335,2.4377,2.4381,2.4429,2.4431,2.4498,2.4492,2.449,2.4489,2.4532,2.4528,2.4668,2.4687,2.4565,2.4566,2.4567,0,2.4135,2.4172,2.4199,2.4222,2.4237,2.4274,2.4298,2.4297,2.4322,2.4354,2.4384,2.4424,2.4456,2.4523,2.4535,2.4573,2.4567,2.4614,2.4573,2.4574,2.4569,2.4567,2.4571,2.4622,2.4623,2.4624,2.4625,0,2.4238,2.4239,2.4273,2.4308,2.4336,2.4364,2.439,2.441,2.4413,2.4442,2.4484,2.4509,2.4559,2.46,2.4637,2.4651,2.464,2.4639,2.4651,2.4652,2.465,2.4653,2.4512,2.4635,2.4634,2.4633,2.4633,2.4632,2.4313,2.4345,2.437,2.4408,2.4428,2.4453,2.4485,2.4496,2.4531,2.4572,2.457,2.4617,2.4642,2.4691,2.4708,2.4746,2.473,2.4747,2.4752,2.4756,2.4761,2.4644,2.4753,2.4752,2.4752,2.4752,2.4752,0,2.4416,2.4431,2.4466,2.4503,2.4534,2.4521,2.4549,2.4576,2.4618,2.4642,2.4675,2.4724,2.4764,2.478,2.4819,2.4846,2.4842,2.4857,2.4855,2.4859,2.4772,2.4758,2.486,2.486,2.486,2.486,2.486,2.486,2.4473,2.4528,2.4532,2.4598,2.4613,2.4659,2.4676,2.47,2.472,2.4776,2.4809,2.4819,2.4841,2.4882,2.4919,2.4923,2.4938,2.4955,2.4957,2.4876,2.4865,2.4854,2.4841,2.4958,2.4959,2.504,2.5041,2.5042]},{"header":{"parameterUnit":"m.s-1","parameterCategory":1,"la1":30.2991,"la2":30.254,"lo1":-89.0895,"lo2":-89.0444,"dy":0.0017,"dx":0.0017,"nx":28,"ny":28,"refTime":"2024-08-19T09:00:00:Z","depth":0,"parameterNumber":3,"parameterNumberName":"V-component_of_WINDS"},"data":[0,0,0,0,0,0,0,0,0,0,0,0,0,0,0,0,0,0,0,0,0,0,0,0,0,0,0,0,0,0,0,0,0,0,0,0,0,0,0,0,0,0,0,0,0,0,0,0,0,0,0,0,0,0,0,0,0,0,-4.2149,-4.2151,0,-4.2294,-4.2296,-4.2297,-4.2278,-4.2276,-4.2273,-4.2271,-4.2417,-4.2423,-4.2429,0,0,0,0,0,0,0,0,0,0,0,0,0,-4.1854,-4.1859,-4.2149,-4.2151,-4.2153,-4.2294,-4.2296,-4.2298,-4.2279,-4.2276,-4.2273,-4.227,-4.2415,-4.2422,-4.2429,0,0,0,0,0,0,0,0,0,0,0,0,0,-4.1989,-4.1861,-4.2149,-4.216,-4.2163,-4.2293,-4.2296,-4.2298,-4.2279,-4.2276,-4.2272,-4.2269,-4.2412,-4.2421,-4.243,-4.2558,0,0,-4.2458,-4.2462,0,0,0,0,0,0,0,0,-4.1981,-4.2,-4.2157,-4.216,-4.2163,-4.2264,-4.2245,-4.2385,-4.228,-4.2235,-4.2271,-4.2267,-4.2369,-4.2381,-4.2416,-4.2565,-4.2571,-4.2459,-4.2464,-4.2468,-4.2471,0,0,0,0,0,0,0,-4.1972,-4.1993,-4.2206,-4.2159,-4.2163,-4.2157,-4.2173,-4.2271,-4.232,-4.2239,-4.2237,-4.2255,-4.237,-4.2407,-4.2419,-4.2573,-4.2459,-4.2467,-4.2472,-4.2476,-4.2834,-4.2837,0,0,0,0,0,0,-4.196,-4.1986,-4.2202,-4.2211,-4.2061,-4.2166,-4.2183,-4.2235,-4.2319,-4.2328,-4.2258,-4.2254,-4.2393,-4.2409,-4.2424,-4.258,-4.2468,-4.2477,-4.2482,-4.283,-4.2834,-4.2839,0,0,0,0,0,0,-4.1954,-4.1979,-4.2196,-4.2098,-4.2125,-4.2175,-4.2234,-4.224,-4.2278,-4.2334,-4.2342,-4.2288,-4.2391,-4.2412,-4.2525,-4.2584,-4.2481,-4.2489,-4.2825,-4.2831,-4.2837,-4.2891,0,0,0,0,0,0,-4.1945,-4.1977,-4.2027,-4.2099,-4.213,-4.2295,-4.2237,-4.2245,-4.2294,-4.229,-4.2364,-4.2372,-4.239,-4.2512,-4.2534,-4.2595,-4.2496,-4.282,-4.2828,-4.2835,-4.2884,-4.2898,-4.291,0,0,0,0,0,-4.1935,-4.2036,-4.2029,-4.2056,-4.2194,-4.2299,-4.2316,-4.2335,-4.2299,-4.2349,-4.2384,-4.237,-4.2574,-4.2523,-4.2549,-4.2613,-4.2816,-4.2825,-4.2834,-4.2878,-4.2895,-4.291,0,0,0,0,0,0,-4.1968,-4.2045,-4.2039,-4.2167,-4.2226,-4.2295,-4.2359,-4.2353,-4.2423,-4.2416,-4.2436,-4.2453,-4.2567,-4.2601,-4.2543,-4.2741,-4.269,-4.2705,-4.2715,-4.2732,-4.2744,-4.2734,-4.2504,0,0,0,0,0,-4.199,-4.207,-4.2133,-4.2239,-4.2269,-4.2309,-4.2355,-4.2365,-4.2427,-4.2452,-4.2496,-4.2556,-4.2634,-4.2684,-4.2759,-4.2889,-4.2904,-4.2946,-4.2958,-4.2969,-4.2981,-4.3052,-4.3071,-4.2868,-4.2868,-4.2868,0,0,-4.2037,-4.2089,-4.2138,-4.2247,-4.2294,-4.2376,-4.233,-4.2418,-4.2478,-4.2465,-4.2575,-4.261,-4.2678,-4.28,-4.2856,-4.2832,-4.3041,-4.298,-4.2988,-4.2995,-4.3064,-4.3083,-4.31,-4.2875,-4.2874,-4.2873,0,0,-4.2164,-4.2211,-4.2305,-4.2354,-4.2426,-4.2452,-4.2474,-4.2544,-4.2567,-4.2678,-4.267,-4.2741,-4.2875,-4.2924,-4.2966,-4.3112,-4.3101,-4.3135,-4.3203,-4.3272,-4.3288,-4.3303,-4.3355,-4.3373,-4.3147,-4.3147,-4.3148,0,-4.2212,-4.2335,-4.2354,-4.2443,-4.2492,-4.2484,-4.2579,-4.2625,-4.2718,-4.2751,-4.2722,-4.289,-4.2935,-4.3069,-4.3105,-4.3139,-4.3165,-4.3127,-4.3285,-4.3299,-4.3313,-4.3363,-4.3382,-4.3151,-4.3151,-4.315,-4.315,0,-4.2391,-4.2477,-4.2544,-4.2635,-4.2691,-4.2782,-4.2814,-4.2868,-4.2873,-4.2901,-4.3014,-4.3069,-4.3154,-4.3186,-4.3191,-4.3321,-4.3304,-4.328,-4.3229,-4.3336,-4.3383,-4.3402,-4.3156,-4.3155,-4.3154,-4.3153,0,0,-4.2543,-4.2644,-4.2668,-4.2709,-4.2789,-4.2855,-4.2946,-4.303,-4.3076,-4.314,-4.3217,-4.333,-4.3309,-4.3357,-4.3367,-4.3428,-4.354,-4.3397,-4.3398,-4.3422,-4.3686,-4.3704,-4.3726,-4.3533,-4.3537,-4.354,-4.368,0,-4.2678,-4.284,-4.286,-4.3004,-4.3083,-4.3076,-4.3156,-4.3213,-4.3242,-4.3312,-4.3343,-4.3424,-4.3389,-4.3418,-4.3478,-4.3514,-4.3593,-4.3504,-4.3604,-4.3608,-4.3588,-4.375,-4.3769,-4.3899,-4.3699,-4.3702,-4.3704,0,-4.2857,-4.2927,-4.3079,-4.3148,-4.3182,-4.3253,-4.3332,-4.34,-4.3464,-4.348,-4.3535,-4.3537,-4.3631,-4.3576,-4.3704,-4.3643,-4.3685,-4.3709,-4.3714,-4.3725,-4.3663,-4.3765,-4.3941,-4.3961,-4.3734,-4.3731,-4.3729,0,-4.2953,-4.3085,-4.3193,-4.3229,-4.3311,-4.3362,-4.3398,-4.3459,-4.3509,-4.3577,-4.361,-4.3688,-4.3731,-4.3791,-4.3815,-4.3773,-4.3942,-4.3889,-4.3958,-4.3958,-4.3994,-4.3992,-4.418,-4.4021,-4.4021,-4.4021,-4.402,0,-4.3101,-4.3195,-4.3238,-4.3304,-4.3408,-4.343,-4.3532,-4.3566,-4.362,-4.3693,-4.3692,-4.376,-4.3787,-4.3859,-4.3877,-4.3981,-4.4,-4.4016,-4.402,-4.4017,-4.4015,-4.4045,-4.4036,-4.4026,-4.4025,-4.4024,-4.4023,0,-4.3226,-4.3259,-4.3376,-4.3445,-4.3465,-4.3538,-4.3597,-4.3661,-4.3689,-4.3781,-4.3804,-4.3848,-4.3933,-4.3962,-4.4064,-4.4077,-4.4198,-4.4194,-4.4176,-4.4177,-4.4245,-4.4238,-4.4459,-4.4489,-4.431,-4.4312,-4.4313,0,-4.3319,-4.3391,-4.3468,-4.3517,-4.3555,-4.3634,-4.3685,-4.3708,-4.3761,-4.384,-4.3894,-4.3979,-4.4048,-4.4183,-4.4224,-4.4302,-4.43,-4.4372,-4.4312,-4.4306,-4.4302,-4.4297,-4.4304,-4.4384,-4.4385,-4.4387,-4.4388,0,-4.348,-4.3493,-4.3567,-4.3647,-4.3707,-4.3771,-4.3833,-4.3873,-4.3905,-4.3964,-4.4052,-4.4105,-4.421,-4.4294,-4.4374,-4.4411,-4.4405,-4.4407,-4.4427,-4.4424,-4.4411,-4.442,-4.4207,-4.4402,-4.44,-4.4399,-4.4399,-4.4398,-4.3592,-4.3656,-4.372,-4.3802,-4.3851,-4.3909,-4.3973,-4.4009,-4.4082,-4.4171,-4.4179,-4.4273,-4.4335,-4.4443,-4.4483,-4.4557,-4.4536,-4.4565,-4.4573,-4.458,-4.4585,-4.44,-4.4571,-4.4571,-4.457,-4.457,-4.457,0,-4.3754,-4.3795,-4.387,-4.3957,-4.4021,-4.4011,-4.4079,-4.4133,-4.4216,-4.4275,-4.4343,-4.4443,-4.4524,-4.4571,-4.4653,-4.4702,-4.4702,-4.4723,-4.4719,-4.4728,-4.4598,-4.4573,-4.4722,-4.4722,-4.4722,-4.4722,-4.4722,-4.4722,-4.3845,-4.3953,-4.3973,-4.4104,-4.4144,-4.4237,-4.4276,-4.4329,-4.4376,-4.4489,-4.4557,-4.4587,-4.4641,-4.4726,-4.48,-4.4811,-4.4841,-4.4865,-4.4874,-4.4753,-4.4737,-4.4722,-4.4698,-4.4871,-4.4871,-4.4998,-4.4999,-4.5]}]]